iso_date,epoch_date,Year,Hour,Min,DOY,POS_DOY,Lat,Lon,BP,Ts,Ta,has_bp,has_ts,has_ta,BuoyID,Buoy_Type,Buoy_Owner,Logistics,Hemisphere
2013-07-11T18:00:00Z,1373565600,2013,18,0,192.75,-999.0,57.73926,-152.5053,1024.0,-5.0,-999.0,yes,yes,no,300234011884260,UPTEMPO,PSC-UPTEMPO,SIZRS,North
2013-07-11T18:14:24Z,1373566464,2013,18,15,192.76,-999.0,57.73926,-152.5052,1013.6,24.58,-999.0,yes,yes,no,300234011884260,UPTEMPO,PSC-UPTEMPO,SIZRS,North
2013-07-11T18:30:14Z,1373567414,2013,18,30,192.771,-999.0,57.73921,-152.5052,1013.6,25.01,-999.0,yes,yes,no,300234011884260,UPTEMPO,PSC-UPTEMPO,SIZRS,North
2013-07-11T18:44:38Z,1373568278,2013,18,45,192.781,-999.0,57.73923,-152.5052,1013.5,23.98,-999.0,yes,yes,no,300234011884260,UPTEMPO,PSC-UPTEMPO,SIZRS,North
2013-08-14T04:00:28Z,1376452829,2013,4,0,226.167,-999.0,72.69701,-151.3606,1017.1,-0.03,-999.0,yes,yes,no,300234011884260,UPTEMPO,PSC-UPTEMPO,SIZRS,North
2013-08-14T04:59:31Z,1376456371,2013,5,0,226.208,-999.0,72.69558,-151.3615,1016.9,-0.05,-999.0,yes,yes,no,300234011884260,UPTEMPO,PSC-UPTEMPO,SIZRS,North
2013-08-14T06:00:00Z,1376460000,2013,6,0,226.25,-999.0,72.69428,-151.3618,1017.2,-0.09,-999.0,yes,yes,no,300234011884260,UPTEMPO,PSC-UPTEMPO,SIZRS,North
2013-08-14T07:00:28Z,1376463629,2013,7,0,226.292,-999.0,72.69305,-151.3636,1017.2,-0.07,-999.0,yes,yes,no,300234011884260,UPTEMPO,PSC-UPTEMPO,SIZRS,North
2013-08-14T07:59:31Z,1376467171,2013,8,0,226.333,-999.0,72.69183,-151.3649,1017.3,-0.08,-999.0,yes,yes,no,300234011884260,UPTEMPO,PSC-UPTEMPO,SIZRS,North
2013-08-14T09:00:00Z,1376470800,2013,9,0,226.375,-999.0,72.68877,-151.365,1017.4,-0.07,-999.0,yes,yes,no,300234011884260,UPTEMPO,PSC-UPTEMPO,SIZRS,North
2013-08-14T10:00:28Z,1376474429,2013,10,0,226.417,-999.0,72.6844,-151.3647,1017.3,-0.05,-999.0,yes,yes,no,300234011884260,UPTEMPO,PSC-UPTEMPO,SIZRS,North
2013-08-14T10:59:31Z,1376477971,2013,11,0,226.458,-999.0,72.67969,-151.3585,1017.2,0.0,-999.0,yes,yes,no,300234011884260,UPTEMPO,PSC-UPTEMPO,SIZRS,North
2013-08-14T12:00:00Z,1376481600,2013,12,0,226.5,-999.0,72.67579,-151.3503,1017.0,0.04,-999.0,yes,yes,no,300234011884260,UPTEMPO,PSC-UPTEMPO,SIZRS,North
2013-08-14T13:00:28Z,1376485229,2013,13,0,226.542,-999.0,72.67244,-151.3447,1016.8,0.01,-999.0,yes,yes,no,300234011884260,UPTEMPO,PSC-UPTEMPO,SIZRS,North
2013-08-14T13:59:31Z,1376488771,2013,14,0,226.583,-999.0,72.67029,-151.3411,1016.8,0.06,-999.0,yes,yes,no,300234011884260,UPTEMPO,PSC-UPTEMPO,SIZRS,North
2013-08-14T15:00:00Z,1376492400,2013,15,0,226.625,-999.0,72.6685,-151.3386,1016.8,-0.01,-999.0,yes,yes,no,300234011884260,UPTEMPO,PSC-UPTEMPO,SIZRS,North
2013-08-14T16:00:28Z,1376496029,2013,16,0,226.667,-999.0,72.66703,-151.3398,1016.8,-0.03,-999.0,yes,yes,no,300234011884260,UPTEMPO,PSC-UPTEMPO,SIZRS,North
2013-08-14T16:59:31Z,1376499571,2013,17,0,226.708,-999.0,72.66538,-151.3434,1016.9,-0.11,-999.0,yes,yes,no,300234011884260,UPTEMPO,PSC-UPTEMPO,SIZRS,North
2013-08-14T18:00:00Z,1376503200,2013,18,0,226.75,-999.0,72.66402,-151.3463,1017.0,-0.24,-999.0,yes,yes,no,300234011884260,UPTEMPO,PSC-UPTEMPO,SIZRS,North
2013-08-14T19:00:28Z,1376506829,2013,19,0,226.792,-999.0,72.66208,-151.348,1017.1,-0.32,-999.0,yes,yes,no,300234011884260,UPTEMPO,PSC-UPTEMPO,SIZRS,North
2013-08-14T19:59:31Z,1376510371,2013,20,0,226.833,-999.0,72.66003,-151.3497,1017.0,-0.3,-999.0,yes,yes,no,300234011884260,UPTEMPO,PSC-UPTEMPO,SIZRS,North
2013-08-14T21:00:00Z,1376514000,2013,21,0,226.875,-999.0,72.65755,-151.3507,1017.2,-0.33,-999.0,yes,yes,no,300234011884260,UPTEMPO,PSC-UPTEMPO,SIZRS,North
2013-08-14T22:00:28Z,1376517629,2013,22,0,226.917,-999.0,72.65469,-151.351,1017.1,-0.31,-999.0,yes,yes,no,300234011884260,UPTEMPO,PSC-UPTEMPO,SIZRS,North
2013-08-14T22:59:31Z,1376521171,2013,23,0,226.958,-999.0,72.65164,-151.3516,1017.3,-0.22,-999.0,yes,yes,no,300234011884260,UPTEMPO,PSC-UPTEMPO,SIZRS,North
2013-08-15T00:00:00Z,1376524800,2013,0,0,227.0,-999.0,72.64814,-151.3533,1017.1,-0.15,-999.0,yes,yes,no,300234011884260,UPTEMPO,PSC-UPTEMPO,SIZRS,North
2013-08-15T01:00:28Z,1376528429,2013,1,0,227.042,-999.0,72.64433,-151.3578,1017.2,-0.09,-999.0,yes,yes,no,300234011884260,UPTEMPO,PSC-UPTEMPO,SIZRS,North
2013-08-15T01:59:31Z,1376531971,2013,2,0,227.083,-999.0,72.64034,-151.3677,1017.2,-0.03,-999.0,yes,yes,no,300234011884260,UPTEMPO,PSC-UPTEMPO,SIZRS,North
2013-08-15T03:00:00Z,1376535600,2013,3,0,227.125,-999.0,72.63696,-151.3822,1017.1,0.0,-999.0,yes,yes,no,300234011884260,UPTEMPO,PSC-UPTEMPO,SIZRS,North
2013-08-15T04:00:28Z,1376539229,2013,4,1,227.167,-999.0,72.63476,-151.3984,1016.9,-0.01,-999.0,yes,yes,no,300234011884260,UPTEMPO,PSC-UPTEMPO,SIZRS,North
2013-08-15T04:59:31Z,1376542771,2013,5,0,227.208,-999.0,72.63406,-151.4141,1017.7,-0.03,-999.0,yes,yes,no,300234011884260,UPTEMPO,PSC-UPTEMPO,SIZRS,North
2013-08-15T06:00:00Z,1376546400,2013,6,0,227.25,-999.0,72.63416,-151.4275,1018.0,-0.29,-999.0,yes,yes,no,300234011884260,UPTEMPO,PSC-UPTEMPO,SIZRS,North
2013-08-15T07:00:28Z,1376550029,2013,7,0,227.292,-999.0,72.63446,-151.4379,1018.4,-0.22,-999.0,yes,yes,no,300234011884260,UPTEMPO,PSC-UPTEMPO,SIZRS,North
2013-08-15T07:59:31Z,1376553571,2013,8,0,227.333,-999.0,72.63513,-151.4453,1018.2,-0.26,-999.0,yes,yes,no,300234011884260,UPTEMPO,PSC-UPTEMPO,SIZRS,North
2013-08-15T09:00:00Z,1376557200,2013,9,0,227.375,-999.0,72.63512,-151.4507,1018.4,-0.25,-999.0,yes,yes,no,300234011884260,UPTEMPO,PSC-UPTEMPO,SIZRS,North
2013-08-15T10:00:28Z,1376560829,2013,10,0,227.417,-999.0,72.63457,-151.4557,1018.8,-0.25,-999.0,yes,yes,no,300234011884260,UPTEMPO,PSC-UPTEMPO,SIZRS,North
2013-08-15T10:59:31Z,1376564371,2013,11,0,227.458,-999.0,72.63317,-151.4608,1018.8,-0.36,-999.0,yes,yes,no,300234011884260,UPTEMPO,PSC-UPTEMPO,SIZRS,North
2013-08-15T12:00:00Z,1376568000,2013,12,0,227.5,-999.0,72.63142,-151.4678,1018.7,-0.52,-999.0,yes,yes,no,300234011884260,UPTEMPO,PSC-UPTEMPO,SIZRS,North
2013-08-15T13:00:28Z,1376571629,2013,13,0,227.542,-999.0,72.62952,-151.4786,1019.0,-0.51,-999.0,yes,yes,no,300234011884260,UPTEMPO,PSC-UPTEMPO,SIZRS,North
2013-08-15T14:00:57Z,1376575258,2013,14,1,227.584,-999.0,72.62813,-151.4908,1019.0,-0.55,-999.0,yes,yes,no,300234011884260,UPTEMPO,PSC-UPTEMPO,SIZRS,North
2013-08-15T15:00:00Z,1376578800,2013,15,0,227.625,-999.0,72.62742,-151.505,1019.0,-0.56,-999.0,yes,yes,no,300234011884260,UPTEMPO,PSC-UPTEMPO,SIZRS,North
2013-08-15T16:00:28Z,1376582429,2013,16,0,227.667,-999.0,72.62764,-151.5208,1019.1,-0.51,-999.0,yes,yes,no,300234011884260,UPTEMPO,PSC-UPTEMPO,SIZRS,North
2013-08-15T16:59:31Z,1376585971,2013,17,0,227.708,-999.0,72.6291,-151.5373,1019.1,-0.46,-999.0,yes,yes,no,300234011884260,UPTEMPO,PSC-UPTEMPO,SIZRS,North
2013-08-15T18:00:00Z,1376589600,2013,18,0,227.75,-999.0,72.6319,-151.5509,1019.1,-0.38,-999.0,yes,yes,no,300234011884260,UPTEMPO,PSC-UPTEMPO,SIZRS,North
2013-08-15T19:00:28Z,1376593229,2013,19,0,227.792,-999.0,72.63479,-151.5584,1019.2,-0.34,-999.0,yes,yes,no,300234011884260,UPTEMPO,PSC-UPTEMPO,SIZRS,North
2013-08-15T19:59:31Z,1376596771,2013,20,0,227.833,-999.0,72.63686,-151.5617,1019.3,-0.39,-999.0,yes,yes,no,300234011884260,UPTEMPO,PSC-UPTEMPO,SIZRS,North
2013-08-15T21:00:00Z,1376600400,2013,21,0,227.875,-999.0,72.6386,-151.5638,1019.4,-0.34,-999.0,yes,yes,no,300234011884260,UPTEMPO,PSC-UPTEMPO,SIZRS,North
2013-08-15T22:00:28Z,1376604029,2013,22,0,227.917,-999.0,72.6395,-151.5671,1019.4,-0.34,-999.0,yes,yes,no,300234011884260,UPTEMPO,PSC-UPTEMPO,SIZRS,North
2013-08-15T22:59:31Z,1376607571,2013,23,0,227.958,-999.0,72.63953,-151.5733,1019.2,-0.3,-999.0,yes,yes,no,300234011884260,UPTEMPO,PSC-UPTEMPO,SIZRS,North
2013-08-16T00:01:26Z,1376611286,2013,0,1,228.001,-999.0,72.63976,-151.5821,1019.0,-0.3,-999.0,yes,yes,no,300234011884260,UPTEMPO,PSC-UPTEMPO,SIZRS,North
2013-08-16T01:00:28Z,1376614829,2013,1,0,228.042,-999.0,72.63976,-151.5916,1018.9,-0.34,-999.0,yes,yes,no,300234011884260,UPTEMPO,PSC-UPTEMPO,SIZRS,North
2013-08-16T01:59:31Z,1376618371,2013,2,0,228.083,-999.0,72.6394,-151.6041,1018.8,-0.37,-999.0,yes,yes,no,300234011884260,UPTEMPO,PSC-UPTEMPO,SIZRS,North
2013-08-16T03:00:00Z,1376622000,2013,3,0,228.125,-999.0,72.63936,-151.6215,1018.6,-0.31,-999.0,yes,yes,no,300234011884260,UPTEMPO,PSC-UPTEMPO,SIZRS,North
2013-08-16T04:00:28Z,1376625629,2013,4,0,228.167,-999.0,72.64054,-151.6404,1018.4,-0.34,-999.0,yes,yes,no,300234011884260,UPTEMPO,PSC-UPTEMPO,SIZRS,North
2013-08-16T05:00:57Z,1376629258,2013,5,1,228.209,-999.0,72.64252,-151.6597,1018.2,-0.39,-999.0,yes,yes,no,300234011884260,UPTEMPO,PSC-UPTEMPO,SIZRS,North
2013-08-16T06:00:00Z,1376632800,2013,6,0,228.25,-999.0,72.64549,-151.6774,1018.1,-0.31,-999.0,yes,yes,no,300234011884260,UPTEMPO,PSC-UPTEMPO,SIZRS,North
2013-08-16T07:00:28Z,1376636429,2013,7,0,228.292,-999.0,72.64907,-151.6933,1018.1,-0.13,-999.0,yes,yes,no,300234011884260,UPTEMPO,PSC-UPTEMPO,SIZRS,North
2013-08-16T07:59:31Z,1376639971,2013,8,0,228.333,-999.0,72.65225,-151.706,1018.1,-0.13,-999.0,yes,yes,no,300234011884260,UPTEMPO,PSC-UPTEMPO,SIZRS,North
2013-08-16T09:01:26Z,1376643686,2013,9,1,228.376,-999.0,72.65478,-151.718,1018.1,-0.06,-999.0,yes,yes,no,300234011884260,UPTEMPO,PSC-UPTEMPO,SIZRS,North
2013-08-16T10:00:28Z,1376647229,2013,10,0,228.417,-999.0,72.65725,-151.7289,1017.9,-0.03,-999.0,yes,yes,no,300234011884260,UPTEMPO,PSC-UPTEMPO,SIZRS,North
2013-08-16T10:59:31Z,1376650771,2013,11,0,228.458,-999.0,72.65949,-151.7419,1017.6,0.01,-999.0,yes,yes,no,300234011884260,UPTEMPO,PSC-UPTEMPO,SIZRS,North
2013-08-16T12:00:00Z,1376654400,2013,12,0,228.5,-999.0,72.66058,-151.7579,1017.2,0.05,-999.0,yes,yes,no,300234011884260,UPTEMPO,PSC-UPTEMPO,SIZRS,North
2013-08-16T13:00:28Z,1376658029,2013,13,1,228.542,-999.0,72.66134,-151.7786,1016.9,0.02,-999.0,yes,yes,no,300234011884260,UPTEMPO,PSC-UPTEMPO,SIZRS,North
2013-08-16T13:59:31Z,1376661571,2013,14,0,228.583,-999.0,72.66153,-151.8011,1016.4,0.0,-999.0,yes,yes,no,300234011884260,UPTEMPO,PSC-UPTEMPO,SIZRS,North
2013-08-16T15:00:00Z,1376665200,2013,15,0,228.625,-999.0,72.66174,-151.8237,1016.3,-0.21,-999.0,yes,yes,no,300234011884260,UPTEMPO,PSC-UPTEMPO,SIZRS,North
2013-08-16T16:00:28Z,1376668829,2013,16,0,228.667,-999.0,72.6621,-151.8477,1016.2,-0.32,-999.0,yes,yes,no,300234011884260,UPTEMPO,PSC-UPTEMPO,SIZRS,North
2013-08-16T16:59:31Z,1376672371,2013,17,0,228.708,-999.0,72.66296,-151.8731,1016.0,-0.29,-999.0,yes,yes,no,300234011884260,UPTEMPO,PSC-UPTEMPO,SIZRS,North
2013-08-16T18:00:00Z,1376676000,2013,18,0,228.75,-999.0,72.66504,-151.8973,1015.8,-0.23,-999.0,yes,yes,no,300234011884260,UPTEMPO,PSC-UPTEMPO,SIZRS,North
2013-08-16T19:00:28Z,1376679629,2013,19,0,228.792,-999.0,72.66789,-151.9217,1015.6,-0.21,-999.0,yes,yes,no,300234011884260,UPTEMPO,PSC-UPTEMPO,SIZRS,North
2013-08-16T20:00:57Z,1376683258,2013,20,1,228.834,-999.0,72.67088,-151.947,1015.1,-0.1,-999.0,yes,yes,no,300234011884260,UPTEMPO,PSC-UPTEMPO,SIZRS,North
2013-08-16T21:00:00Z,1376686800,2013,21,0,228.875,-999.0,72.67323,-151.9678,1015.0,-0.2,-999.0,yes,yes,no,300234011884260,UPTEMPO,PSC-UPTEMPO,SIZRS,North
2013-08-16T22:00:28Z,1376690429,2013,22,0,228.917,-999.0,72.6753,-151.99,1014.7,-0.32,-999.0,yes,yes,no,300234011884260,UPTEMPO,PSC-UPTEMPO,SIZRS,North
2013-08-16T22:59:31Z,1376693971,2013,23,0,228.958,-999.0,72.67712,-152.0114,1014.4,-0.28,-999.0,yes,yes,no,300234011884260,UPTEMPO,PSC-UPTEMPO,SIZRS,North
2013-08-17T00:00:00Z,1376697600,2013,0,0,229.0,-999.0,72.67922,-152.0342,1014.2,-0.31,-999.0,yes,yes,no,300234011884260,UPTEMPO,PSC-UPTEMPO,SIZRS,North
2013-08-17T01:00:28Z,1376701229,2013,1,0,229.042,-999.0,72.68186,-152.0573,1013.6,-0.35,-999.0,yes,yes,no,300234011884260,UPTEMPO,PSC-UPTEMPO,SIZRS,North
2013-08-17T01:59:31Z,1376704771,2013,2,0,229.083,-999.0,72.68457,-152.0767,1013.2,-0.27,-999.0,yes,yes,no,300234011884260,UPTEMPO,PSC-UPTEMPO,SIZRS,North
2013-08-17T03:00:00Z,1376708400,2013,3,0,229.125,-999.0,72.68755,-152.0942,1013.0,-0.23,-999.0,yes,yes,no,300234011884260,UPTEMPO,PSC-UPTEMPO,SIZRS,North
2013-08-17T04:00:28Z,1376712029,2013,4,0,229.167,-999.0,72.6902,-152.111,1012.7,-0.21,-999.0,yes,yes,no,300234011884260,UPTEMPO,PSC-UPTEMPO,SIZRS,North
2013-08-17T05:00:57Z,1376715658,2013,5,1,229.209,-999.0,72.69273,-152.1298,1012.5,-0.33,-999.0,yes,yes,no,300234011884260,UPTEMPO,PSC-UPTEMPO,SIZRS,North
2013-08-17T06:00:00Z,1376719200,2013,6,0,229.25,-999.0,72.6948,-152.1508,1012.4,-0.35,-999.0,yes,yes,no,300234011884260,UPTEMPO,PSC-UPTEMPO,SIZRS,North
2013-08-17T07:00:28Z,1376722829,2013,7,0,229.292,-999.0,72.69724,-152.1731,1012.2,-0.43,-999.0,yes,yes,no,300234011884260,UPTEMPO,PSC-UPTEMPO,SIZRS,North
2013-08-17T07:59:31Z,1376726371,2013,8,0,229.333,-999.0,72.69979,-152.1939,1012.1,-0.36,-999.0,yes,yes,no,300234011884260,UPTEMPO,PSC-UPTEMPO,SIZRS,North
2013-08-17T09:01:26Z,1376730086,2013,9,1,229.376,-999.0,72.70207,-152.2142,1012.1,-0.29,-999.0,yes,yes,no,300234011884260,UPTEMPO,PSC-UPTEMPO,SIZRS,North
2013-08-17T10:00:28Z,1376733629,2013,10,1,229.417,-999.0,72.70414,-152.2326,1011.6,-0.46,-999.0,yes,yes,no,300234011884260,UPTEMPO,PSC-UPTEMPO,SIZRS,North
2013-08-17T10:59:31Z,1376737171,2013,11,0,229.458,-999.0,72.7057,-152.2497,1011.6,-0.65,-999.0,yes,yes,no,300234011884260,UPTEMPO,PSC-UPTEMPO,SIZRS,North
2013-08-17T12:00:00Z,1376740800,2013,12,0,229.5,-999.0,72.70609,-152.2642,1011.3,-0.6,-999.0,yes,yes,no,300234011884260,UPTEMPO,PSC-UPTEMPO,SIZRS,North
2013-08-17T13:00:28Z,1376744429,2013,13,0,229.542,-999.0,72.70596,-152.2771,1011.0,-0.3,-999.0,yes,yes,no,300234011884260,UPTEMPO,PSC-UPTEMPO,SIZRS,North
2013-08-17T14:00:57Z,1376748058,2013,14,1,229.584,-999.0,72.70537,-152.2906,1010.8,-0.45,-999.0,yes,yes,no,300234011884260,UPTEMPO,PSC-UPTEMPO,SIZRS,North
2013-08-17T15:00:00Z,1376751600,2013,15,0,229.625,-999.0,72.70409,-152.3051,1010.6,-0.4,-999.0,yes,yes,no,300234011884260,UPTEMPO,PSC-UPTEMPO,SIZRS,North
2013-08-17T16:00:28Z,1376755229,2013,16,0,229.667,-999.0,72.70259,-152.3247,1010.4,-0.68,-999.0,yes,yes,no,300234011884260,UPTEMPO,PSC-UPTEMPO,SIZRS,North
2013-08-17T16:59:31Z,1376758771,2013,17,0,229.708,-999.0,72.70164,-152.346,1010.5,-0.68,-999.0,yes,yes,no,300234011884260,UPTEMPO,PSC-UPTEMPO,SIZRS,North
2013-08-17T18:00:00Z,1376762400,2013,18,0,229.75,-999.0,72.70149,-152.3691,1010.3,-0.55,-999.0,yes,yes,no,300234011884260,UPTEMPO,PSC-UPTEMPO,SIZRS,North
2013-08-17T19:00:28Z,1376766029,2013,19,0,229.792,-999.0,72.70171,-152.3922,1010.0,-0.42,-999.0,yes,yes,no,300234011884260,UPTEMPO,PSC-UPTEMPO,SIZRS,North
2013-08-17T19:59:31Z,1376769571,2013,20,0,229.833,-999.0,72.70249,-152.414,1009.9,-0.53,-999.0,yes,yes,no,300234011884260,UPTEMPO,PSC-UPTEMPO,SIZRS,North
2013-08-17T21:00:00Z,1376773200,2013,21,0,229.875,-999.0,72.70318,-152.4354,1010.0,-0.25,-999.0,yes,yes,no,300234011884260,UPTEMPO,PSC-UPTEMPO,SIZRS,North
2013-08-17T22:00:28Z,1376776829,2013,22,1,229.917,-999.0,72.7038,-152.4552,1010.0,-0.24,-999.0,yes,yes,no,300234011884260,UPTEMPO,PSC-UPTEMPO,SIZRS,North
2013-08-17T23:00:57Z,1376780458,2013,23,1,229.959,-999.0,72.70377,-152.473,1009.8,-0.17,-999.0,yes,yes,no,300234011884260,UPTEMPO,PSC-UPTEMPO,SIZRS,North
2013-08-18T00:01:26Z,1376784086,2013,0,1,230.001,-999.0,72.70374,-152.4907,1009.6,-0.3,-999.0,yes,yes,no,300234011884260,UPTEMPO,PSC-UPTEMPO,SIZRS,North
2013-08-18T01:00:28Z,1376787629,2013,1,1,230.042,-999.0,72.70277,-152.5091,1009.5,-0.31,-999.0,yes,yes,no,300234011884260,UPTEMPO,PSC-UPTEMPO,SIZRS,North
2013-08-18T01:59:31Z,1376791171,2013,2,0,230.083,-999.0,72.7009,-152.529,1009.3,0.04,-999.0,yes,yes,no,300234011884260,UPTEMPO,PSC-UPTEMPO,SIZRS,North
2013-08-18T03:01:26Z,1376794886,2013,3,1,230.126,-999.0,72.69875,-152.5498,1009.3,-0.1,-999.0,yes,yes,no,300234011884260,UPTEMPO,PSC-UPTEMPO,SIZRS,North
2013-08-18T04:00:28Z,1376798429,2013,4,1,230.167,-999.0,72.69643,-152.5725,1009.1,-0.21,-999.0,yes,yes,no,300234011884260,UPTEMPO,PSC-UPTEMPO,SIZRS,North
2013-08-18T05:00:57Z,1376802058,2013,5,1,230.209,-999.0,72.69415,-152.5984,1009.1,-0.09,-999.0,yes,yes,no,300234011884260,UPTEMPO,PSC-UPTEMPO,SIZRS,North
2013-08-18T06:00:00Z,1376805600,2013,6,0,230.25,-999.0,72.69147,-152.6254,1009.1,-0.11,-999.0,yes,yes,no,300234011884260,UPTEMPO,PSC-UPTEMPO,SIZRS,North
2013-08-18T07:00:28Z,1376809229,2013,7,0,230.292,-999.0,72.68957,-152.6521,1009.2,0.1,-999.0,yes,yes,no,300234011884260,UPTEMPO,PSC-UPTEMPO,SIZRS,North
2013-08-18T07:59:31Z,1376812771,2013,8,0,230.333,-999.0,72.68859,-152.675,1009.4,0.2,-999.0,yes,yes,no,300234011884260,UPTEMPO,PSC-UPTEMPO,SIZRS,North
2013-08-18T09:00:00Z,1376816400,2013,9,0,230.375,-999.0,72.68692,-152.6995,1009.3,-0.24,-999.0,yes,yes,no,300234011884260,UPTEMPO,PSC-UPTEMPO,SIZRS,North
2013-08-18T10:00:28Z,1376820029,2013,10,0,230.417,-999.0,72.68622,-152.7211,1009.3,0.25,-999.0,yes,yes,no,300234011884260,UPTEMPO,PSC-UPTEMPO,SIZRS,North
2013-08-18T10:59:31Z,1376823571,2013,11,0,230.458,-999.0,72.68535,-152.7405,1009.4,0.2,-999.0,yes,yes,no,300234011884260,UPTEMPO,PSC-UPTEMPO,SIZRS,North
2013-08-18T12:00:00Z,1376827200,2013,12,0,230.5,-999.0,72.68397,-152.7587,1009.4,0.13,-999.0,yes,yes,no,300234011884260,UPTEMPO,PSC-UPTEMPO,SIZRS,North
2013-08-18T13:00:28Z,1376830829,2013,13,0,230.542,-999.0,72.68224,-152.7776,1009.4,0.1,-999.0,yes,yes,no,300234011884260,UPTEMPO,PSC-UPTEMPO,SIZRS,North
2013-08-18T13:59:31Z,1376834371,2013,14,0,230.583,-999.0,72.68031,-152.7979,1009.4,0.12,-999.0,yes,yes,no,300234011884260,UPTEMPO,PSC-UPTEMPO,SIZRS,North
2013-08-18T15:01:26Z,1376838086,2013,15,1,230.626,-999.0,72.67835,-152.8198,1009.3,0.11,-999.0,yes,yes,no,300234011884260,UPTEMPO,PSC-UPTEMPO,SIZRS,North
2013-08-18T16:00:28Z,1376841629,2013,16,0,230.667,-999.0,72.67706,-152.8427,1009.5,0.09,-999.0,yes,yes,no,300234011884260,UPTEMPO,PSC-UPTEMPO,SIZRS,North
2013-08-18T16:59:31Z,1376845171,2013,17,0,230.708,-999.0,72.6765,-152.8656,1009.6,0.08,-999.0,yes,yes,no,300234011884260,UPTEMPO,PSC-UPTEMPO,SIZRS,North
2013-08-18T18:00:00Z,1376848800,2013,18,0,230.75,-999.0,72.67596,-152.8882,1009.7,0.06,-999.0,yes,yes,no,300234011884260,UPTEMPO,PSC-UPTEMPO,SIZRS,North
2013-08-18T19:00:28Z,1376852429,2013,19,1,230.792,-999.0,72.67548,-152.9103,1009.9,0.07,-999.0,yes,yes,no,300234011884260,UPTEMPO,PSC-UPTEMPO,SIZRS,North
2013-08-18T19:59:31Z,1376855971,2013,20,0,230.833,-999.0,72.67505,-152.9339,1010.2,0.08,-999.0,yes,yes,no,300234011884260,UPTEMPO,PSC-UPTEMPO,SIZRS,North
2013-08-18T21:01:26Z,1376859686,2013,21,1,230.876,-999.0,72.67449,-152.9577,1010.6,0.11,-999.0,yes,yes,no,300234011884260,UPTEMPO,PSC-UPTEMPO,SIZRS,North
2013-08-18T22:00:28Z,1376863229,2013,22,0,230.917,-999.0,72.67358,-152.9794,1010.7,0.11,-999.0,yes,yes,no,300234011884260,UPTEMPO,PSC-UPTEMPO,SIZRS,North
2013-08-18T23:00:57Z,1376866858,2013,23,1,230.959,-999.0,72.67223,-153.0001,1011.0,0.13,-999.0,yes,yes,no,300234011884260,UPTEMPO,PSC-UPTEMPO,SIZRS,North
2013-08-19T00:00:00Z,1376870400,2013,0,0,231.0,-999.0,72.67195,-153.029,1011.0,-0.15,-999.0,yes,yes,no,300234011884260,UPTEMPO,PSC-UPTEMPO,SIZRS,North
2013-08-19T01:00:28Z,1376874029,2013,1,0,231.042,-999.0,72.66982,-153.0589,1011.2,0.09,-999.0,yes,yes,no,300234011884260,UPTEMPO,PSC-UPTEMPO,SIZRS,North
2013-08-19T01:59:31Z,1376877571,2013,2,0,231.083,-999.0,72.66717,-153.079,1011.5,0.07,-999.0,yes,yes,no,300234011884260,UPTEMPO,PSC-UPTEMPO,SIZRS,North
2013-08-19T03:01:26Z,1376881286,2013,3,1,231.126,-999.0,72.66486,-153.1027,1011.7,-0.33,-999.0,yes,yes,no,300234011884260,UPTEMPO,PSC-UPTEMPO,SIZRS,North
2013-08-19T04:00:28Z,1376884829,2013,4,0,231.167,-999.0,72.66294,-153.1367,1011.8,-0.47,-999.0,yes,yes,no,300234011884260,UPTEMPO,PSC-UPTEMPO,SIZRS,North
2013-08-19T04:59:31Z,1376888371,2013,5,0,231.208,-999.0,72.65935,-153.1728,1012.0,-0.03,-999.0,yes,yes,no,300234011884260,UPTEMPO,PSC-UPTEMPO,SIZRS,North
2013-08-19T06:00:00Z,1376892000,2013,6,0,231.25,-999.0,72.65527,-153.2076,1012.3,-0.03,-999.0,yes,yes,no,300234011884260,UPTEMPO,PSC-UPTEMPO,SIZRS,North
2013-08-19T07:00:28Z,1376895629,2013,7,0,231.292,-999.0,72.6511,-153.2423,1012.6,0.15,-999.0,yes,yes,no,300234011884260,UPTEMPO,PSC-UPTEMPO,SIZRS,North
2013-08-19T07:59:31Z,1376899171,2013,8,0,231.333,-999.0,72.64803,-153.2793,1012.9,0.12,-999.0,yes,yes,no,300234011884260,UPTEMPO,PSC-UPTEMPO,SIZRS,North
2013-08-19T09:01:26Z,1376902886,2013,9,1,231.376,-999.0,72.64353,-153.3175,1013.1,0.06,-999.0,yes,yes,no,300234011884260,UPTEMPO,PSC-UPTEMPO,SIZRS,North
2013-08-19T10:00:28Z,1376906429,2013,10,0,231.417,-999.0,72.63949,-153.3613,1013.5,0.01,-999.0,yes,yes,no,300234011884260,UPTEMPO,PSC-UPTEMPO,SIZRS,North
2013-08-19T10:59:31Z,1376909971,2013,11,0,231.458,-999.0,72.63761,-153.4055,1013.8,0.15,-999.0,yes,yes,no,300234011884260,UPTEMPO,PSC-UPTEMPO,SIZRS,North
2013-08-19T12:01:26Z,1376913686,2013,12,1,231.501,-999.0,72.63479,-153.4474,1013.8,0.14,-999.0,yes,yes,no,300234011884260,UPTEMPO,PSC-UPTEMPO,SIZRS,North
2013-08-19T13:00:28Z,1376917229,2013,13,1,231.542,-999.0,72.63322,-153.4701,1014.3,0.18,-999.0,yes,yes,no,300234011884260,UPTEMPO,PSC-UPTEMPO,SIZRS,North
2013-08-19T13:59:31Z,1376920771,2013,14,0,231.583,-999.0,72.63142,-153.4921,1014.7,0.21,-999.0,yes,yes,no,300234011884260,UPTEMPO,PSC-UPTEMPO,SIZRS,North
2013-08-19T15:01:26Z,1376924486,2013,15,1,231.626,-999.0,72.62967,-153.5147,1014.9,0.15,-999.0,yes,yes,no,300234011884260,UPTEMPO,PSC-UPTEMPO,SIZRS,North
2013-08-19T16:00:28Z,1376928029,2013,16,1,231.667,-999.0,72.62783,-153.5364,1015.5,0.08,-999.0,yes,yes,no,300234011884260,UPTEMPO,PSC-UPTEMPO,SIZRS,North
2013-08-19T16:59:31Z,1376931571,2013,17,0,231.708,-999.0,72.62634,-153.5578,1016.0,0.05,-999.0,yes,yes,no,300234011884260,UPTEMPO,PSC-UPTEMPO,SIZRS,North
2013-08-19T18:00:00Z,1376935200,2013,18,0,231.75,-999.0,72.62498,-153.5799,1016.3,0.04,-999.0,yes,yes,no,300234011884260,UPTEMPO,PSC-UPTEMPO,SIZRS,North
2013-08-19T19:00:28Z,1376938829,2013,19,1,231.792,-999.0,72.62399,-153.5985,1016.6,0.06,-999.0,yes,yes,no,300234011884260,UPTEMPO,PSC-UPTEMPO,SIZRS,North
2013-08-19T19:59:31Z,1376942371,2013,20,0,231.833,-999.0,72.62299,-153.6153,1017.0,0.07,-999.0,yes,yes,no,300234011884260,UPTEMPO,PSC-UPTEMPO,SIZRS,North
2013-08-19T21:00:00Z,1376946000,2013,21,0,231.875,-999.0,72.62173,-153.6287,1017.3,0.09,-999.0,yes,yes,no,300234011884260,UPTEMPO,PSC-UPTEMPO,SIZRS,North
2013-08-19T22:00:28Z,1376949629,2013,22,1,231.917,-999.0,72.61993,-153.6411,1017.5,0.08,-999.0,yes,yes,no,300234011884260,UPTEMPO,PSC-UPTEMPO,SIZRS,North
2013-08-19T22:59:31Z,1376953171,2013,23,0,231.958,-999.0,72.61724,-153.6522,1017.5,0.09,-999.0,yes,yes,no,300234011884260,UPTEMPO,PSC-UPTEMPO,SIZRS,North
2013-08-20T00:00:00Z,1376956800,2013,0,0,232.0,-999.0,72.61519,-153.6654,1017.7,0.06,-999.0,yes,yes,no,300234011884260,UPTEMPO,PSC-UPTEMPO,SIZRS,North
2013-08-20T01:00:28Z,1376960429,2013,1,1,232.042,-999.0,72.61211,-153.6784,1017.7,0.07,-999.0,yes,yes,no,300234011884260,UPTEMPO,PSC-UPTEMPO,SIZRS,North
2013-08-20T01:59:31Z,1376963971,2013,2,0,232.083,-999.0,72.60884,-153.6923,1017.7,0.1,-999.0,yes,yes,no,300234011884260,UPTEMPO,PSC-UPTEMPO,SIZRS,North
2013-08-20T03:00:00Z,1376967600,2013,3,0,232.125,-999.0,72.60559,-153.7057,1017.7,0.08,-999.0,yes,yes,no,300234011884260,UPTEMPO,PSC-UPTEMPO,SIZRS,North
2013-08-20T04:00:28Z,1376971229,2013,4,0,232.167,-999.0,72.60264,-153.7198,1017.7,0.08,-999.0,yes,yes,no,300234011884260,UPTEMPO,PSC-UPTEMPO,SIZRS,North
2013-08-20T05:00:57Z,1376974858,2013,5,1,232.209,-999.0,72.59958,-153.7347,1017.7,0.07,-999.0,yes,yes,no,300234011884260,UPTEMPO,PSC-UPTEMPO,SIZRS,North
2013-08-20T06:00:00Z,1376978400,2013,6,0,232.25,-999.0,72.59684,-153.7489,1017.6,0.07,-999.0,yes,yes,no,300234011884260,UPTEMPO,PSC-UPTEMPO,SIZRS,North
2013-08-20T07:00:28Z,1376982029,2013,7,1,232.292,-999.0,72.59451,-153.7624,1017.3,0.07,-999.0,yes,yes,no,300234011884260,UPTEMPO,PSC-UPTEMPO,SIZRS,North
2013-08-20T07:59:31Z,1376985571,2013,8,0,232.333,-999.0,72.59197,-153.7753,1017.3,0.01,-999.0,yes,yes,no,300234011884260,UPTEMPO,PSC-UPTEMPO,SIZRS,North
2013-08-20T09:00:00Z,1376989200,2013,9,0,232.375,-999.0,72.58975,-153.7867,1017.2,0.05,-999.0,yes,yes,no,300234011884260,UPTEMPO,PSC-UPTEMPO,SIZRS,North
2013-08-20T10:00:28Z,1376992829,2013,10,1,232.417,-999.0,72.58721,-153.7971,1017.1,0.02,-999.0,yes,yes,no,300234011884260,UPTEMPO,PSC-UPTEMPO,SIZRS,North